Regional Weather Roundup
Issued by NWS

Home | Current Version | Previous Version | Graphics & Text | Print | Product List | Glossary Off
Versions: 1 2 3 4 5 6 7 8 9 10 11 12 13 14 15 16 17 18 19 20 21 22 23 24 25 26 27 28 29 30 31 32 33 34 35 36 37 38 39 40 41 42 43 44 45 46 47 48 49 50

000
ASUS43 KLOT 232209
RWRIL

ILLINOIS REGIONAL WEATHER ROUNDUP
NATIONAL WEATHER SERVICE CHICAGO/ROMEOVILLE IL
500 PM CDT TUE AUG 23 2016

NOTE: "FAIR" INDICATES FEW OR NO CLOUDS BELOW 12,000 FEET WITH NO
SIGNIFICANT WEATHER AND/OR OBSTRUCTIONS TO VISIBILITY.

* THESE STATIONS ARE NOT UNDER NWS QUALITY CONTROL. THEY ALSO MAY NOT
  REPORT WEATHER SUCH AS PRECIPITATION OR FOG.

ILZ001-002-007-009-015-016-024-232300-
NORTHWEST ILLINOIS

CITY           SKY/WX    TMP DP  RH WIND       PRES   REMARKS
MOLINE         CLOUDY    79  66  64 S10       30.07F HX  81
STERLING*      PTSUNNY   79  66  64 SE9       30.10F HX  81
SAVANNA*       CLOUDY    80  65  61 S13       30.08S HX  82
$$

ILZ003-004-008-010-011-017-018-232300-
NORTH CENTRAL ILLINOIS

CITY           SKY/WX    TMP DP  RH WIND       PRES   REMARKS
ROCKFORD       CLOUDY    78  62  57 S16G22    30.12S HX  80
FREEPORT*      MOSUNNY   77  64  64 S13       30.12F
ROCHELLE*      PTSUNNY   77  65  67 S10G16    30.13S
DE KALB*       PTSUNNY   76  64  65 S14       30.15S
$$

ILZ005-006-012>014-019>023-232300-
NORTHEAST ILLINOIS

CITY           SKY/WX    TMP DP  RH WIND       PRES   REMARKS
CHICAGO-OHARE  PTSUNNY   79  59  50 S14       30.13S HX  80
CHICAGO-MIDWAY PTSUNNY   80  59  48 S15       30.14S HX  81
AURORA         MOSUNNY   80  63  55 S14G20    30.14S HX  81
LANSING*       MOSUNNY   77  60  55 S14       30.16S
JOLIET*        PTSUNNY   80  64  56 S8G18     30.15S HX  82
WAUKEGAN       SUNNY     82  60  47 S13       30.12S HX  82
DUPAGE AIRPORT MOSUNNY   78  60  53 S12G23    30.14R
KANKAKEE*      MOSUNNY   81  63  54 S9        30.17S HX  82
WHEELING       SUNNY     81  58  45 S14G23    30.14S HX  81
MORRIS*        MOSUNNY   80  64  57 S12       30.13S HX  81
ROMEOVILLE*    MOSUNNY   77  60  54 S13       30.15R
NORTHERLY ISL    N/A     79  57  46 S12         N/A  HX  80
$$

LMZ740>746-232300-
SOUTHERN LAKE MICHIGAN

STATION/POSITION SKY/WX   TEMP    WIND        PRES    VSBY  WAVE
                          AIR SEA DIR/SP/G                  HT/PER
                          (F)     (DEG/KT/KT) (MB)    (MI)  (FT/S)
SOUTHERN BUOY              75 75  160/ 16/ 19 1020.1F         3/ 4
WILMETTE HARBOR            75 71  180/ 12/ 16   N/A           2/ 3
HARRISON CRIB              77     180/ 18/ 18   N/A
BURNHAM HARBOR             79     190/  8/ 15   N/A
CALUMET HARBOR             79     180/ 12/ 20 1020.5F
BURNS HARBOR               79     190/ 13/ 21 1021.7S
MICHIGAN CITY              78     170/ 12/ 15   N/A
MICHIGAN CITY 6N           77 74  190/ 12/ 16   N/A           2/ 2
ST. JOSEPH                 77 75  180/ 12/ 14 1021.2S         2/ 3
$$

ILZ025>027-034>036-040-047-049-050-058-095>099-232300-
WEST-CENTRAL ILLINOIS

CITY           SKY/WX    TMP DP  RH WIND       PRES   REMARKS
QUINCY         CLOUDY    75  72  90 SE10      30.08F
GALESBURG*     CLOUDY    75  67  74 S13G18    30.10S
MACOMB*        CLOUDY    74  68  82 S14G22    30.12S
JACKSONVILLE*  CLOUDY    74  67  80 S10       30.12F
PITTSFIELD*    CLOUDY    75  70  85 SE9       30.11F
$$

ILZ028>032-037-038-041>044-048-051>054-059>061-232300-
CENTRAL ILLINOIS

CITY           SKY/WX    TMP DP  RH WIND       PRES   REMARKS
PONTIAC        PTSUNNY   79  67  67 S10G18    30.16R HX  81
BLOOMINGTON    CLOUDY    77  66  68 S16       30.16S
DECATUR        CLOUDY    77  65  66 S10       30.17R
PEORIA         CLOUDY    77  66  68 S16       30.12S
LACON*         PTSUNNY   79  65  63 S9        30.11S HX  81
LINCOLN*       CLOUDY    77  67  72 S9        30.14F
SPRINGFIELD    CLOUDY    75  67  76 S13       30.14F
TAYLORVILLE    CLOUDY    73  67  81 S6        30.16S
$$

ILZ033-039-045-046-055>057-062-063-232300-
EAST-CENTRAL ILLINOIS

CITY           SKY/WX    TMP DP  RH WIND       PRES   REMARKS
CHAMPAIGN      CLOUDY    77  67  71 S7        30.18S
RANTOUL*       CLOUDY    78  67  67 S9        30.17S HX  80
MATTOON        CLOUDY    77  65  66 S6        30.18S
PARIS*         CLOUDY    78  66  66 S5        30.19S HX  80
$$

ILZ079-100>102-232300-
SOUTHWEST ILLINOIS

CITY           SKY/WX    TMP DP  RH WIND       PRES   REMARKS
ALTON          CLOUDY    73  68  83 SE8       30.15F
BELLEVILLE     CLOUDY    76  67  76 SE3       30.13F
CAHOKIA*       CLOUDY    77  68  73 SE6       30.13F
SPARTA*        CLOUDY    75  70  84 SE3       30.17F
$$

ILZ064>066-069>071-074>076-080>082-084>086-088>090-092>094-232300-
SOUTH-CENTRAL ILLINOIS

CITY           SKY/WX    TMP DP  RH WIND       PRES   REMARKS
CARBONDALE     CLOUDY    77  69  76 SE7       30.15F
CAIRO*         CLOUDY    81  74  80 S9        30.16S HX  86
EFFINGHAM*     CLOUDY    78  68  71 SE5       30.19S HX  80
MARION         CLOUDY    79  70  73 SE9       30.17  HX  81
MT. VERNON     CLOUDY    77  64  65 S6        30.19R
CENTRALIA*     CLOUDY    77  70  80 S7        30.16S
SALEM*         CLOUDY    77  67  71 SE5       30.18R
$$

ILZ067-068-072-073-078-083-087-091-232300-
SOUTHEAST ILLINOIS

CITY           SKY/WX    TMP DP  RH WIND       PRES   REMARKS
LAWRENCEVILLE  CLOUDY    80  64  58 S6        30.19S HX  82
FLORA*         CLOUDY    79  67  67 S7        30.19R HX  81
FAIRFIELD*     CLOUDY    77  68  73 SE3       30.17S
HARRISBURG*    CLOUDY    78  70  78 SE3       30.18R
ROBINSON*      CLOUDY    77  67  70 S5        30.19S
CARMI*         CLOUDY    79  68  68 SE6       30.18R HX  81
$$

ABBREVIATIONS USED IN REMARKS
   TC - TEMPERATURE IN CELSIUS
  WCI - WIND CHILL INDEX
   HX - HEAT INDEX
  VSB - VISIBILITY
$$




USA.gov is the U.S. government's official web portal to all federal, state and local government web resources and services.